EW6552 Weather Reports


time (UTC)temp
F
wind
direction
speed
knots
gust
knots
rain 1hr
in
rain 24hr
in
rain mn
in
humidity
%
barometer
mb
20260507030017 56 0.0 0.0 0.00 0.00 0.00 80 1019.3
20260507023022 57 0.0 0.0 0.00 0.00 0.00 79 1019.0
20260507020022 57 0.0 0.0 0.00 0.00 0.00 79 1019.1
20260507013022 58 0.0 0.9 0.00 0.00 0.00 78 1019.2
20260507010037 58 0.0 0.0 0.00 0.00 0.00 77 1019.2
20260507003022 58 0.0 2.6 0.00 0.00 0.00 79 1019.2
20260507000017 59 0.0 0.9 0.00 0.00 0.00 78 1019.3
20260506233022 58 0.0 0.9 0.00 0.00 0.00 81 1019.5
20260506230017 58 0.0 2.6 0.00 0.00 0.00 79 1019.4
20260506223022 58 0.0 0.0 0.00 0.00 0.00 79 1019.6
20260506220022 58 0.0 3.5 0.00 0.00 0.00 80 1019.8
20260506213022 58 0.0 0.9 0.00 0.00 0.00 79 1019.7
20260506210022 58 0.0 5.2 0.00 0.00 0.00 80 1019.7
20260506203017 57 0.0 0.9 0.00 0.00 0.00 81 1019.6
20260506200022 57 0.0 0.0 0.00 0.00 0.00 80 1019.6
20260506193017 56 0.0 0.0 0.00 0.00 0.00 81 1019.5
20260506190022 56 0.0 3.5 0.00 0.00 0.00 81 1019.4
20260506183022 56 0.0 1.7 0.00 0.00 0.00 81 1019.5
20260506180021 56 0.0 4.3 0.00 0.00 0.00 81 1019.0
20260506173017 56 0.0 1.7 0.00 0.00 0.00 81 1018.9
20260506170020 55 0.0 0.9 0.00 0.00 0.00 82 1019.1
20260506163022 55 0.0 2.6 0.00 0.00 0.00 83 1019.0
20260506160016 54 0.0 0.9 0.00 0.00 0.00 85 1018.6
20260506153042 53 0.0 0.0 0.00 0.00 0.00 88 1018.4
20260506150016 53 0.0 0.9 0.00 0.00 0.00 89 1018.7
20260506143101 52 0.0 0.0 0.00 0.00 0.00 89 1018.5
20260506140016 52 0.0 0.0 0.00 0.00 0.00 90 1018.3
20260506133022 52 0.0 0.0 0.00 0.00 0.00 89 1018.2
20260506130021 52 0.0 2.6 0.00 0.00 0.00 89 1018.1
20260506123043 52 0.0 0.0 0.00 0.00 0.00 90 1017.9
20260506120016 52 0.0 0.0 0.00 0.00 0.00 90 1017.6
20260506113020 52 0.0 0.0 0.00 0.00 0.00 90 1017.3
20260506110036 52 0.0 0.0 0.00 0.00 0.00 91 1017.2
20260506103041 52 0.0 0.0 0.00 0.00 0.00 91 1017.0
20260506100020 51 0.0 0.0 0.00 0.00 0.00 91 1016.7
20260506093036 51 0.0 0.0 0.00 0.00 0.00 91 1016.6
20260506090018 51 0.0 0.0 0.00 0.00 0.00 91 1016.5
20260506083020 51 0.0 0.0 0.00 0.00 0.00 91 1016.2
20260506073016 51 0.0 0.0 0.00 0.00 0.00 89 1015.8
20260506043018 57 0.0 0.0 0.00 0.00 0.00 82 1014.6
20260506040015 59 0.0 0.0 0.00 0.00 0.00 80 1014.3
20260506033020 60 0.0 0.0 0.00 0.00 0.00 79 1013.8